Weather History for KTUS - October, 2012

Change the Weather History Date:

Saturday, October 20, 2012

  Actual Average Record
Temperature  
Mean Temperature 75 °F 70 °F  
Max Temperature 89 °F 84 °F 97 °F (2003)
Min Temperature 61 °F 56 °F 35 °F (1908)
Degree Days  
Heating Degree Days 0 1  
Month to date heating degree days 1 6  
Since 1 July heating degree days 1 6  
Cooling Degree Days 10 5  
Month to date cooling degree days 209 167  
Year to date cooling degree days 3471 3074  
Growing Degree Days 25 (Base 50)    
Moisture  
Dew Point 40 °F    
Average Humidity 29    
Maximum Humidity 40    
Minimum Humidity 18    
Precipitation  
Precipitation 0.00 in 0.03 in 0.93 in (1988)
Month to date precipitation T 0.64  
Year to date precipitation 6.70 9.84  
Snow  
Snow 0.00 in - - ()
Month to date snowfall 0.0  
Snow Depth 0.00 in    
Sea Level Pressure  
Sea Level Pressure 29.78 in    
Wind  
Wind Speed 5 mph (SSW)    
Max Wind Speed 14 mph    
Max Gust Speed 18 mph    
Visibility 10 miles    
Events      
T = Trace of Precipitation, MM = Missing Value Source: NWS Daily Summary

Daily Weather History Graph

Daily Weather History Graph

Search for Another Location

Airport or City:

Trip Planner

Search our weather history database for the weather conditions in past years. The results will help you decide how hot, cold, wet, or windy it might be!

Date:

Astronomy

Oct. 20, 2012 Rise Set
Actual Time 6:31 AM MST 5:45 PM MST
Civil Twilight 6:06 AM MST 6:09 PM MST
Nautical Twilight 5:38 AM MST 6:38 PM MST
Astronomical Twilight 5:09 AM MST 7:06 PM MST
Moon 12:00 PM MST (10/20) 10:43 PM MST (10/20)
Length of Visible Light 12h 03m
Length of Day
11h 13m
Waxing Crescent, 35% of the Moon is Illuminated
Oct 20
Waxing Crescent
Oct 21
First Quarter
Oct 29
Full
Nov 6
Last Quarter
Nov 13
New

Hourly Weather History & Observations

Time (MST) Temp. Dew Point Humidity Pressure Visibility Wind Dir Wind Speed Gust Speed Precip Events Conditions
12:53 AM 66.9 °F 35.1 °F 31% 29.80 in 10.0 mi SSE 5.8 mph - N/A   Clear
1:53 AM 66.9 °F 36.0 °F 32% 29.79 in 10.0 mi SSE 3.5 mph - N/A   Clear
2:53 AM 64.0 °F 36.0 °F 35% 29.79 in 10.0 mi SE 3.5 mph - N/A   Clear
3:53 AM 63.0 °F 35.1 °F 35% 29.78 in 10.0 mi SE 6.9 mph - N/A   Clear
4:53 AM 62.1 °F 36.0 °F 38% 29.79 in 10.0 mi SSE 6.9 mph - N/A   Clear
5:53 AM 63.0 °F 37.0 °F 38% 29.81 in 10.0 mi SE 9.2 mph - N/A   Clear
6:53 AM 62.1 °F 37.9 °F 41% 29.83 in 10.0 mi SE 9.2 mph - N/A   Clear
7:53 AM 66.9 °F 39.0 °F 36% 29.84 in 10.0 mi SSE 8.1 mph - N/A   Clear
8:53 AM 71.1 °F 39.0 °F 31% 29.84 in 10.0 mi Calm Calm - N/A   Clear
9:53 AM 78.1 °F 39.0 °F 25% 29.83 in 10.0 mi Calm Calm - N/A   Clear
10:53 AM 82.9 °F 37.0 °F 19% 29.81 in 10.0 mi North 4.6 mph - N/A   Clear
11:53 AM 84.2 °F 37.4 °F 19% 29.92 in 10.0 mi Variable 3.5 mph - N/A   Clear
12:53 PM 87.1 °F 39.0 °F 18% 29.76 in 10.0 mi West 9.2 mph - N/A   Clear
1:53 PM 87.1 °F 39.9 °F 19% 29.73 in 10.0 mi West 3.5 mph - N/A   Clear
2:53 PM 88.0 °F 39.9 °F 18% 29.72 in 10.0 mi WNW 6.9 mph - N/A   Clear
3:53 PM 87.1 °F 41.0 °F 20% 29.72 in 10.0 mi West 6.9 mph - N/A   Clear
4:53 PM 86.0 °F 39.9 °F 20% 29.72 in 10.0 mi WSW 10.4 mph - N/A   Clear
5:53 PM 82.9 °F 43.0 °F 24% 29.73 in 10.0 mi West 6.9 mph - N/A   Clear
6:53 PM 79.0 °F 43.0 °F 28% 29.75 in 10.0 mi West 6.9 mph - N/A   Clear
7:53 PM 77.0 °F 43.0 °F 30% 29.76 in 10.0 mi West 4.6 mph - N/A   Clear
8:53 PM 75.0 °F 44.1 °F 33% 29.78 in 10.0 mi Calm Calm - N/A   Clear
9:53 PM 72.0 °F 43.0 °F 35% 29.78 in 10.0 mi Calm Calm - N/A   Clear
10:53 PM 70.0 °F 44.1 °F 39% 29.78 in 10.0 mi SSE 6.9 mph - N/A   Clear
11:53 PM 69.1 °F 45.0 °F 42% 29.78 in 10.0 mi Calm Calm - N/A   Clear